Location: Bonny Doon Airfield
(37.0704°N, 122.1252°W)
Time: 15:41:41
(UTC-08:00)

Vanguard 1 Rocket - Pass Details

Date: 29 October 2017
Orbit: 656 x 4222 km, 34.3° (Epoch: 11 December)

Event Time Altitude Azimuth Distance (km) Brightness Sun altitude
Rises 07:28:54 0° 262° (W) 6,149 11.0 -1.1°
Reaches altitude 10° 07:33:45 10° 261° (W) 4,553 10.4 -0.1°
Maximum altitude 07:44:39 73° 180° (S) 1,267 8.3 1.9°
Drops below altitude 10° 07:50:28 10° 96° (E) 2,520 11.6 3.0°
Sets 07:52:27 0° 94° (E) 3,274 12.1 3.4°
